Weather History for Oakland, MD

Change the Weather History Date:

Tuesday, January 15, 2013

  Actual Average (KMGW) Record (KMGW)
Temperature  
Mean Temperature 30 °F 31 °F  
Max Temperature 32 °F 39 °F 67 °F (1995)
Min Temperature 28 °F 24 °F -14 °F (1972)
Degree Days  
Heating Degree Days 35 34  
Month to date heating degree days 507  
Since 1 July heating degree days 2491  
Cooling Degree Days 0 0  
Month to date cooling degree days 0  
Year to date cooling degree days 0  
Moisture  
Dew Point 30 °F    
Average Humidity 100    
Maximum Humidity 100    
Minimum Humidity 100    
Precipitation  
Precipitation 0.00 in 0.09 in 0.74 in (1959)
Month to date precipitation 1.35  
Year to date precipitation 1.35  
Sea Level Pressure  
Sea Level Pressure 30.14 in    
Wind  
Wind Speed 5 mph (ESE)    
Max Wind Speed 17 mph    
Max Gust Speed 17 mph    
Visibility 2 miles    
Events Fog    
T = Trace of Precipitation, MM = Missing Value Source: NWS Daily Summary

Daily Weather History Graph

Daily Weather History Graph

Search for Another Location

Airport:

Trip Planner

Search our weather history database for the weather conditions in past years. The results will help you decide how hot, cold, wet, or windy it might be!

Date:

Astronomy

Jan. 15, 2013 Rise Set
Actual Time 7:36 AM EST 5:18 PM EST
Civil Twilight 7:06 AM EST 5:47 PM EST
Nautical Twilight 6:33 AM EST 6:20 PM EST
Astronomical Twilight 6:01 AM EST 6:52 PM EST
Moon 9:42 AM EST (1/15) 10:04 PM EST (1/15)
Length of Visible Light 10h 40m
Length of Day
9h 41m
Waxing Crescent, 19% of the Moon is Illuminated
Jan 15
Waxing Crescent
Jan 18
First Quarter
Jan 26
Full
Feb 3
Last Quarter
Feb 10
New

Hourly Weather History & Observations

Time (EST) Temp. Windchill Dew Point Humidity Pressure Visibility Wind Dir Wind Speed Gust Speed Precip Events Conditions
12:15 AM 30.2 °F 25.4 °F 30.2 °F 100% 30.17 in 0.2 mi North 4.6 mph - N/A Fog Light Freezing Fog
12:35 AM 30.2 °F 25.4 °F 30.2 °F 100% 30.18 in 0.2 mi NNW 4.6 mph - N/A Fog Light Freezing Fog
1:20 AM 30.2 °F 25.4 °F 30.2 °F 100% 30.15 in 0.2 mi NNE 4.6 mph - N/A Fog Light Freezing Fog
2:00 AM 30.2 °F 26.7 °F 30.2 °F 100% 30.14 in 0.2 mi SSE 3.5 mph - N/A Fog Light Freezing Fog
3:05 AM 30.2 °F - 30.2 °F 100% 30.15 in 1.0 mi Calm Calm - N/A   Overcast
3:45 AM 30.2 °F - 30.2 °F 100% 30.16 in 0.5 mi Calm Calm - N/A Fog Light Freezing Fog
3:50 AM 30.2 °F - 30.2 °F 100% 30.16 in 0.5 mi Calm Calm - N/A Fog Light Freezing Fog
4:10 AM 30.2 °F - 30.2 °F 100% 30.16 in 1.0 mi Calm Calm - N/A   Overcast
4:30 AM 30.2 °F - 30.2 °F 100% 30.15 in 0.2 mi Calm Calm - N/A Fog Light Freezing Fog
4:50 AM 30.2 °F - 30.2 °F 100% 30.15 in 0.2 mi Calm Calm - N/A Fog Light Freezing Fog
5:15 AM 30.2 °F - 30.2 °F 100% 30.15 in 1.2 mi Calm Calm - N/A   Overcast
5:35 AM 30.2 °F 25.4 °F 30.2 °F 100% 30.16 in 0.2 mi NNW 4.6 mph - N/A Fog Light Freezing Fog
5:55 AM 30.2 °F 25.4 °F 30.2 °F 100% 30.17 in 0.2 mi NNW 4.6 mph - N/A Fog Light Freezing Fog
6:15 AM 30.2 °F 24.3 °F 30.2 °F 100% 30.17 in 0.2 mi NNW 5.8 mph - N/A Fog Light Freezing Fog
6:40 AM 30.2 °F 23.4 °F 30.2 °F 100% 30.17 in 0.2 mi NNW 6.9 mph - N/A Fog Light Freezing Fog
7:00 AM 28.4 °F 22.2 °F 28.4 °F 100% 30.18 in 0.2 mi NNW 5.8 mph - N/A Fog Light Freezing Fog
8:45 AM 28.4 °F - 28.4 °F 100% 30.24 in 2.0 mi Calm Calm - N/A   Overcast
9:05 AM 28.4 °F - 28.4 °F 100% 30.24 in 3.0 mi Calm Calm - N/A   Overcast
9:30 AM 30.2 °F - 30.2 °F 100% 30.24 in 2.5 mi Calm Calm - N/A   Overcast
9:50 AM 30.2 °F - 30.2 °F 100% 30.24 in 0.2 mi Calm Calm - N/A Fog Light Freezing Fog
10:10 AM 30.2 °F - 30.2 °F 100% 30.24 in 0.2 mi Calm Calm - N/A Fog Light Freezing Fog
10:30 AM 30.2 °F - 30.2 °F 100% 30.24 in 1.5 mi Calm Calm - N/A   Overcast
10:55 AM 30.2 °F 26.7 °F 30.2 °F 100% 30.22 in 1.5 mi East 3.5 mph - N/A   Overcast
11:15 AM 30.2 °F 25.4 °F 30.2 °F 100% 30.22 in 1.2 mi ESE 4.6 mph - N/A   Overcast
11:35 AM 30.2 °F 24.3 °F 30.2 °F 100% 30.20 in 1.2 mi ESE 5.8 mph - N/A   Overcast
11:55 AM 32.0 °F 24.8 °F 32.0 °F 100% 30.18 in 3.0 mi SE 8.1 mph - N/A   Overcast
12:20 PM 32.0 °F 24.8 °F 32.0 °F 100% 30.16 in 7.0 mi ESE 8.1 mph - N/A   Overcast
12:40 PM 32.0 °F 24.2 °F 32.0 °F 100% 30.15 in 7.0 mi SE 9.2 mph - N/A   Overcast
1:00 PM 30.2 °F 22.6 °F 30.2 °F 100% 30.14 in 2.5 mi ESE 8.1 mph - N/A   Overcast
1:20 PM 30.2 °F 22.6 °F 30.2 °F 100% 30.13 in 2.5 mi ESE 8.1 mph - N/A   Overcast
1:45 PM 30.2 °F 22.6 °F 30.2 °F 100% 30.14 in 1.0 mi SE 8.1 mph - N/A   Overcast
2:05 PM 30.2 °F 21.9 °F 30.2 °F 100% 30.12 in 0.2 mi ESE 9.2 mph - N/A Fog Light Freezing Fog
2:25 PM 30.2 °F 25.4 °F 30.2 °F 100% 30.13 in 0.2 mi East 4.6 mph - N/A Fog Light Freezing Fog
2:45 PM 30.2 °F 24.3 °F 30.2 °F 100% 30.13 in 0.2 mi East 5.8 mph - N/A Fog Light Freezing Fog
3:10 PM 30.2 °F 23.4 °F 30.2 °F 100% 30.12 in 0.2 mi East 6.9 mph - N/A Fog Light Freezing Fog
3:30 PM 30.2 °F 23.4 °F 30.2 °F 100% 30.12 in 0.2 mi East 6.9 mph - N/A Fog Light Freezing Fog
3:50 PM 30.2 °F 21.3 °F 30.2 °F 100% 30.11 in 0.2 mi ESE 10.4 mph - N/A Fog Light Freezing Fog
4:10 PM 30.2 °F 21.3 °F 30.2 °F 100% 30.09 in 0.2 mi ESE 10.4 mph - N/A Fog Light Freezing Fog
4:55 PM 30.2 °F 24.3 °F 30.2 °F 100% 30.11 in 0.2 mi East 5.8 mph - N/A Fog Light Freezing Fog
5:15 PM 30.2 °F 23.4 °F 30.2 °F 100% 30.12 in 1.2 mi East 6.9 mph - N/A   Overcast
5:35 PM 30.2 °F 18.5 °F 30.2 °F 100% 30.08 in 0.5 mi ESE 17.3 mph - N/A Fog Light Freezing Fog
6:00 PM 30.2 °F 21.3 °F 30.2 °F 100% 30.11 in 1.8 mi SE 10.4 mph 17.3 mph N/A   Overcast
6:20 PM 30.2 °F 22.6 °F 30.2 °F 100% 30.13 in 1.5 mi SE 8.1 mph - N/A   Overcast
6:40 PM 30.2 °F 19.8 °F 30.2 °F 100% 30.10 in 1.2 mi ESE 13.8 mph - N/A   Overcast
7:00 PM 30.2 °F 19.8 °F 30.2 °F 100% 30.10 in 1.5 mi ESE 13.8 mph - N/A   Overcast
7:25 PM 30.2 °F 21.9 °F 30.2 °F 100% 30.11 in 1.0 mi SE 9.2 mph - N/A   Overcast
8:25 PM 30.2 °F 22.6 °F 30.2 °F 100% 30.10 in 4.0 mi ESE 8.1 mph - N/A   Overcast
8:50 PM 30.2 °F 22.6 °F 30.2 °F 100% 30.08 in 4.0 mi ESE 8.1 mph - N/A   Overcast
9:10 PM 30.2 °F 21.9 °F 30.2 °F 100% 30.06 in 5.0 mi ESE 9.2 mph - N/A   Overcast
9:30 PM 30.2 °F 21.9 °F 30.2 °F 100% 30.05 in 5.0 mi ESE 9.2 mph - N/A   Overcast
10:15 PM 30.2 °F 22.6 °F 30.2 °F 100% 30.02 in 3.0 mi SE 8.1 mph - N/A   Overcast
10:35 PM 30.2 °F 24.3 °F 30.2 °F 100% 30.01 in 4.0 mi ESE 5.8 mph - N/A   Overcast
10:55 PM 30.2 °F 24.3 °F 30.2 °F 100% 30.01 in 4.0 mi SE 5.8 mph - N/A   Overcast
11:15 PM 30.2 °F 23.4 °F 30.2 °F 100% 30.01 in 4.0 mi SE 6.9 mph - N/A   Overcast
11:40 PM 30.2 °F 25.4 °F 30.2 °F 100% 29.99 in 2.5 mi SE 4.6 mph - N/A   Overcast